STARLINK-31814, 59802

Orbit data source: Space-Track

STARLINK-31814, 59802 is a payload satellite owned by SpaceX/Seattle (US) in LEO that was launched on Sat, 18 May 2024 UTC via an FALCON 9 launch vehicle from the Air Force Eastern Test Range (AFETR). Payload-class satellites include a variety of spacecraft equipped with specific instruments for various scientific and technological missions. These include communications satellites like Starlink; space stations such as the ISS; scientific satellites like the Hubble; Earth observation satellites from companies like Planet Labs, Umbra, and HawkEye 360; GPS; miniature CubeSats for education and research; and military/defense satellites.

Loading next visibility...
Identifier
59802, 2024-093W
Orbit
LEO
Country
Flag of USUS
Related business
Manufacturer
SpaceX/Seattle
Mission
Operational spacecraft
Bus & Motor
STARLINK V2M, Unknown motor
Mass
730 kg wet, ~700 kg dry
Launch date (UTC)
2024-05-18 (2 years ago)
Launch vehicle
FALCON 9
Launch site
Air Force Eastern Test Range (AFETR)
Object type
Payload
Rocket body
Debris
Shape & HBR
Unknown shape, 17.7 m
Radar Cross Section
Large (>1 m²)

Expand to show TLE details & history
Last TLE update: 12 hours ago

TLE from 12 hours ago
0 STARLINK-31814
1 59802U 24093W   25340.79638044  .00003437  00000-0  13425-3 0  9992
2 59802  43.0036  13.9201 0001246 278.3830  81.6881 15.27605098 88485
Epoch: 2025-12-06T19:06Z
TLE epoch observation values (Epoch: 2025-12-06T19:06:47.270Z)
Latitude
-0°
Longitude
11.40417°
Altitude
482.626 km
Speed
7.626 km/s
True Right ascension
00h 55m 40s
True Declination
0° 00' 00"
Sunlit
Object was in full shadow at epoch
Visualization orbit readout
Latitude
Unknown
Longitude
Unknown
Altitude
Unknown
Speed
Unknown
Apparent Right ascension
Unknown
Apparent Declination
Unknown
Sunlit
N/A
Visualization observer readout
Local Sidereal Time
05:22:39
Azimuth
Unknown
Elevation
Unknown
Doppler factor
Unknown
Orbital elements
Apogee altitude
485.774 km
Perigee altitude
484.063 km
Semi-major axis
6,863.056 km
Eccentricity
0.00012
Inclination
43.0036°
RAAN
13.9201°
Arg. of periapsis
278.383°
True anomaly
81.70223°
Mean anomaly
81.6881°
Eccentric anomaly
81.69516°
Mean motion
3.81739 °/min
Orbital period
94.31 mins
BSTAR
0.00013425
Loading maneuver chart data...
Computing Atmospheric mass density...
Loading historical data...
Loading historical data...
Loading historical data...
Loading historical data...
Loading historical data...
Loading historical data...
Loading historical data...

Documentation

Showing up to 5 results
|